QPF
0.04 0.04 0.04 0.05 0.05 0.05 0.05 0.05 0.05 0.05 0.05 0.06 0.06 0.07 0.09 0.08 0.06 0.06 0.05 0.06 0.09 0.08 0.05 0.03 0.04 0.05 0.06 0.08 0.09 0.10 0.14 0.12 0.10 0.09 0.07 0.06 0.07 0.08 0.09 0.09 0.09 0.09 0.09
0.03 0.02 0.02 0.04 0.04 0.05 0.04 0.04 0.03 0.04 0.04 0.04 0.05 0.06 0.06 0.07 0.06 0.05 0.05 0.07 0.09 0.08 0.06 0.04 0.04 0.04 0.06 0.06 0.07 0.07 0.10 0.14 0.13 0.11 0.09 0.07 0.06 0.07 0.09 0.09 0.09 0.09 0.09
0.03 0.02 0.03 0.03 0.03 0.04 0.04 0.03 0.03 0.04 0.04 0.04 0.04 0.05 0.05 0.05 0.06 0.06 0.05 0.05 0.06 0.08 0.08 0.06 0.05 0.05 0.05 0.05 0.06 0.06 0.06 0.10 0.13 0.12 0.10 0.09 0.07 0.08 0.08 0.08 0.09 0.08 0.07
0.03 0.03 0.03 0.03 0.02 0.03 0.03 0.03 0.03 0.03 0.03 0.04 0.04 0.04 0.04 0.03 0.04 0.04 0.04 0.04 0.05 0.06 0.06 0.06 0.06 0.06 0.06 0.06 0.07 0.10 0.10 0.10 0.11 0.12 0.11 0.09 0.08 0.08 0.08 0.07 0.08 0.08 0.08
0.04 0.03 0.02 0.02 0.02 0.03 0.03 0.03 0.03 0.04 0.05 0.05 0.05 0.05 0.04 0.04 0.04 0.04 0.04 0.03 0.04 0.05 0.06 0.06 0.05 0.06 0.07 0.07 0.09 0.12 0.13 0.12 0.11 0.12 0.14 0.15 0.16 0.14 0.11 0.08 0.08 0.08 0.08
0.05 0.03 0.02 0.03 0.03 0.03 0.03 0.03 0.03 0.04 0.05 0.07 0.08 0.06 0.05 0.05 0.05 0.05 0.06 0.08 0.08 0.07 0.08 0.07 0.07 0.07 0.06 0.05 0.05 0.06 0.07 0.07 0.09 0.10 0.13 0.14 0.14 0.13 0.11 0.08 0.06 0.07 0.07
0.03 0.03 0.02 0.03 0.03 0.03 0.03 0.04 0.06 0.05 0.05 0.06 0.07 0.07 0.06 0.05 0.05 0.05 0.05 0.10 0.12 0.09 0.07 0.05 0.05 0.04 0.03 0.03 0.04 0.05 0.06 0.08 0.11 0.12 0.13 0.13 0.13 0.11 0.10 0.08 0.06 0.06 0.06
0.03 0.02 0.03 0.03 0.03 0.04 0.04 0.05 0.08 0.06 0.05 0.07 0.08 0.09 0.08 0.07 0.05 0.03 0.04 0.05 0.06 0.07 0.05 0.03 0.03 0.04 0.03 0.03 0.03 0.03 0.04 0.06 0.09 0.10 0.11 0.11 0.13 0.12 0.11 0.10 0.08 0.08 0.07
0.02 0.02 0.02 0.02 0.03 0.04 0.04 0.04 0.06 0.07 0.08 0.09 0.09 0.09 0.08 0.07 0.06 0.05 0.04 0.04 0.04 0.05 0.05 0.04 0.03 0.03 0.03 0.03 0.03 0.02 0.03 0.05 0.05 0.06 0.08 0.09 0.10 0.12 0.13 0.12 0.10 0.08 0.06
0.03 0.03 0.03 0.03 0.03 0.03 0.03 0.04 0.04 0.06 0.07 0.07 0.06 0.06 0.07 0.08 0.08 0.06 0.05 0.05 0.05 0.06 0.06 0.04 0.03 0.03 0.03 0.02 0.02 0.02 0.02 0.03 0.04 0.04 0.05 0.06 0.07 0.09 0.11 0.11 0.10 0.09 0.07
0.04 0.04 0.05 0.04 0.05 0.04 0.05 0.04 0.05 0.06 0.06 0.05 0.05 0.05 0.06 0.05 0.05 0.06 0.05 0.06 0.05 0.04 0.03 0.03 0.04 0.04 0.04 0.04 0.03 0.03 0.02 0.02 0.03 0.04 0.05 0.05 0.05 0.07 0.10 0.12 0.11 0.10 0.09
0.06 0.05 0.05 0.05 0.05 0.04 0.05 0.05 0.04 0.04 0.04 0.04 0.05 0.05 0.05 0.04 0.04 0.05 0.05 0.05 0.06 0.05 0.04 0.04 0.04 0.04 0.04 0.05 0.04 0.03 0.02 0.03 0.03 0.03 0.03 0.03 0.04 0.04 0.05 0.09 0.11 0.10 0.09
0.05 0.04 0.04 0.05 0.05 0.05 0.04 0.04 0.05 0.05 0.05 0.04 0.04 0.04 0.04 0.04 0.04 0.04 0.05 0.04 0.04 0.06 0.05 0.04 0.05 0.04 0.04 0.05 0.05 0.03 0.02 0.02 0.02 0.02 0.02 0.02 0.02 0.02 0.03 0.05 0.09 0.10 0.09
0.03 0.03 0.03 0.04 0.05 0.05 0.04 0.05 0.05 0.05 0.05 0.04 0.03 0.04 0.03 0.03 0.03 0.03 0.03 0.04 0.04 0.04 0.05 0.04 0.04 0.04 0.04 0.04 0.04 0.04 0.03 0.02 0.01 0.01 0.01 0.02 0.02 0.01 0.02 0.03 0.05 0.09 0.09
0.03 0.03 0.03 0.03 0.04 0.05 0.05 0.06 0.06 0.07 0.07 0.06 0.05 0.05 0.04 0.04 0.04 0.04 0.03 0.04 0.05 0.04 0.04 0.04 0.04 0.03 0.03 0.02 0.02 0.02 0.03 0.03 0.02 0.02 0.01 0.01 0.01 0.01 0.01 0.01 0.02 0.06 0.09
0.03 0.03 0.03 0.04 0.05 0.05 0.05 0.05 0.06 0.07 0.07 0.06 0.07 0.07 0.06 0.06 0.06 0.05 0.03 0.03 0.04 0.05 0.05 0.04 0.04 0.04 0.03 0.02 0.02 0.01 0.01 0.02 0.02 0.02 0.02 0.01 0.01 0.01 0.01 0.01 0.01 0.03 0.07
0.02 0.02 0.03 0.04 0.05 0.05 0.05 0.04 0.04 0.05 0.05 0.05 0.05 0.05 0.05 0.06 0.06 0.05 0.04 0.04 0.04 0.05 0.06 0.06 0.06 0.05 0.04 0.03 0.02 0.02 0.01 0.01 0.02 0.02 0.02 0.01 0.01 0.01 0.01 0.01 0.01 0.02 0.03
0.02 0.03 0.04 0.05 0.06 0.07 0.06 0.05 0.04 0.04 0.04 0.04 0.04 0.04 0.04 0.03 0.03 0.04 0.03 0.03 0.03 0.03 0.04 0.04 0.04 0.03 0.03 0.02 0.02 0.02 0.01 0.01 0.02 0.01 0.01 0.01 0.01 0.01 0.01 0.01 0.01 0.01 0.02
0.02 0.03 0.04 0.04 0.05 0.06 0.07 0.05 0.04 0.03 0.03 0.03 0.03 0.04 0.04 0.04 0.03 0.03 0.03 0.03 0.02 0.02 0.02 0.03 0.03 0.04 0.03 0.02 0.02 0.02 0.02 0.02 0.01 0.01 0.01 0.01 0.01 0.01 0.01 0.01 0.01 0.01 0.02
0.02 0.03 0.03 0.03 0.04 0.04 0.05 0.06 0.04 0.03 0.03 0.03 0.03 0.03 0.03 0.04 0.04 0.04 0.05 0.05 0.03 0.03 0.03 0.03 0.03 0.03 0.03 0.03 0.03 0.03 0.02 0.02 0.02 0.01 0.01 0.01 0.01 0.01 0.01 0.01 0.01 0.01 0.02
0.01 0.02 0.03 0.03 0.02 0.03 0.04 0.04 0.03 0.03 0.03 0.02 0.02 0.03 0.03 0.05 0.04 0.03 0.03 0.04 0.05 0.05 0.06 0.05 0.04 0.04 0.04 0.04 0.03 0.03 0.03 0.04 0.03 0.02 0.02 0.02 0.01 0.01 0.01 0.01 0.01 0.01 0.01
0.01 0.01 0.01 0.02 0.02 0.02 0.02 0.02 0.02 0.03 0.03 0.02 0.02 0.02 0.02 0.03 0.03 0.02 0.02 0.02 0.03 0.03 0.04 0.05 0.06 0.05 0.05 0.04 0.03 0.02 0.03 0.04 0.05 0.04 0.04 0.04 0.03 0.03 0.02 0.02 0.02 0.01 0.01
0.01 0.01 0.01 0.02 0.02 0.02 0.01 0.01 0.02 0.03 0.03 0.03 0.02 0.01 0.01 0.01 0.01 0.01 0.01 0.01 0.02 0.02 0.02 0.04 0.04 0.04 0.04 0.05 0.05 0.04 0.04 0.05 0.05 0.05 0.05 0.06 0.06 0.05 0.03 0.02 0.01 0.01 0.01
0.01 0.01 0.01 0.02 0.02 0.02 0.01 0.02 0.01 0.02 0.04 0.04 0.03 0.02 0.02 0.01 0.01 0.01 0.01 0.02 0.02 0.02 0.02 0.02 0.03 0.04 0.04 0.05 0.07 0.06 0.06 0.06 0.06 0.06 0.06 0.06 0.07 0.07 0.05 0.04 0.03 0.02 0.02
0.02 0.02 0.01 0.02 0.03 0.02 0.02 0.03 0.02 0.03 0.05 0.05 0.04 0.03 0.02 0.02 0.01 0.01 0.01 0.02 0.02 0.03 0.01 0.01 0.01 0.01 0.01 0.02 0.03 0.05 0.05 0.06 0.06 0.07 0.06 0.06 0.07 0.08 0.07 0.05 0.04 0.03 0.03
0.02 0.03 0.04 0.06 0.06 0.05 0.06 0.06 0.05 0.04 0.05 0.05 0.04 0.03 0.02 0.02 0.01 0.02 0.02 0.02 0.01 0.02 0.01 0.01 0.02 0.02 0.02 0.02 0.01 0.02 0.03 0.04 0.04 0.04 0.04 0.05 0.05 0.07 0.07 0.04 0.03 0.02 0.02
MSLP
1015.23 1015.04 1014.81 1014.55 1014.30 1014.06 1013.84 1013.62 1013.38 1013.12 1012.80 1012.42 1012.01 1011.60 1011.21 1010.91 1010.71 1010.65 1010.71 1010.85 1011.05 1011.26 1011.43 1011.55 1011.62 1011.64 1011.65 1011.68 1011.76 1011.91 1012.14 1012.42 1012.76 1013.14 1013.53 1013.94 1014.36 1014.79 1015.25 1015.72 1016.22 1016.74 1017.28
1015.58 1015.38 1015.13 1014.86 1014.58 1014.31 1014.06 1013.83 1013.59 1013.32 1013.02 1012.65 1012.25 1011.82 1011.41 1011.06 1010.80 1010.67 1010.65 1010.74 1010.89 1011.08 1011.26 1011.40 1011.50 1011.55 1011.58 1011.62 1011.68 1011.80 1011.97 1012.20 1012.49 1012.82 1013.18 1013.56 1013.96 1014.38 1014.81 1015.28 1015.77 1016.28 1016.81
1015.91 1015.71 1015.45 1015.16 1014.85 1014.56 1014.28 1014.02 1013.77 1013.50 1013.20 1012.84 1012.45 1012.02 1011.60 1011.23 1010.92 1010.73 1010.65 1010.67 1010.78 1010.94 1011.10 1011.26 1011.37 1011.46 1011.51 1011.56 1011.63 1011.72 1011.86 1012.05 1012.29 1012.58 1012.89 1013.24 1013.60 1013.99 1014.41 1014.85 1015.32 1015.82 1016.35
1016.17 1015.97 1015.71 1015.40 1015.08 1014.77 1014.46 1014.18 1013.90 1013.62 1013.31 1012.97 1012.58 1012.17 1011.76 1011.38 1011.05 1010.82 1010.70 1010.67 1010.72 1010.83 1010.97 1011.11 1011.23 1011.33 1011.40 1011.46 1011.53 1011.63 1011.75 1011.92 1012.13 1012.37 1012.65 1012.95 1013.28 1013.63 1014.01 1014.42 1014.87 1015.35 1015.88
1016.31 1016.11 1015.86 1015.57 1015.25 1014.92 1014.61 1014.30 1014.00 1013.70 1013.38 1013.04 1012.67 1012.28 1011.88 1011.51 1011.19 1010.95 1010.78 1010.71 1010.71 1010.77 1010.86 1010.96 1011.06 1011.15 1011.23 1011.30 1011.38 1011.48 1011.60 1011.76 1011.95 1012.17 1012.42 1012.68 1012.96 1013.27 1013.61 1013.99 1014.41 1014.88 1015.40
1016.32 1016.14 1015.92 1015.65 1015.35 1015.04 1014.72 1014.41 1014.09 1013.77 1013.44 1013.10 1012.74 1012.38 1012.01 1011.67 1011.36 1011.11 1010.92 1010.81 1010.75 1010.74 1010.77 1010.82 1010.88 1010.94 1011.00 1011.07 1011.16 1011.28 1011.42 1011.58 1011.77 1011.97 1012.18 1012.41 1012.65 1012.92 1013.21 1013.55 1013.94 1014.38 1014.90
1016.24 1016.09 1015.90 1015.68 1015.43 1015.15 1014.86 1014.54 1014.23 1013.90 1013.56 1013.22 1012.87 1012.52 1012.18 1011.86 1011.58 1011.33 1011.12 1010.97 1010.85 1010.77 1010.73 1010.70 1010.70 1010.72 1010.76 1010.83 1010.93 1011.06 1011.22 1011.39 1011.58 1011.78 1011.97 1012.16 1012.36 1012.57 1012.81 1013.10 1013.45 1013.88 1014.37
1016.12 1016.00 1015.85 1015.69 1015.51 1015.28 1015.03 1014.75 1014.44 1014.11 1013.77 1013.43 1013.09 1012.76 1012.44 1012.14 1011.86 1011.62 1011.39 1011.20 1011.02 1010.87 1010.75 1010.65 1010.58 1010.55 1010.56 1010.62 1010.73 1010.87 1011.05 1011.25 1011.44 1011.63 1011.80 1011.95 1012.09 1012.24 1012.43 1012.66 1012.97 1013.36 1013.83
1016.02 1015.91 1015.82 1015.73 1015.61 1015.46 1015.26 1015.02 1014.74 1014.43 1014.09 1013.75 1013.41 1013.09 1012.78 1012.49 1012.22 1011.97 1011.73 1011.49 1011.26 1011.05 1010.85 1010.68 1010.55 1010.47 1010.46 1010.51 1010.62 1010.79 1010.98 1011.19 1011.39 1011.56 1011.70 1011.80 1011.89 1011.97 1012.08 1012.25 1012.50 1012.85 1013.29
1015.95 1015.87 1015.82 1015.77 1015.72 1015.64 1015.51 1015.32 1015.08 1014.80 1014.48 1014.14 1013.81 1013.49 1013.18 1012.90 1012.62 1012.36 1012.09 1011.82 1011.55 1011.28 1011.03 1010.80 1010.63 1010.52 1010.49 1010.53 1010.65 1010.83 1011.03 1011.24 1011.44 1011.58 1011.68 1011.73 1011.75 1011.77 1011.80 1011.90 1012.08 1012.37 1012.76
1015.92 1015.84 1015.81 1015.81 1015.81 1015.78 1015.71 1015.58 1015.39 1015.14 1014.85 1014.53 1014.21 1013.89 1013.59 1013.30 1013.02 1012.74 1012.45 1012.16 1011.86 1011.55 1011.26 1011.01 1010.81 1010.68 1010.64 1010.69 1010.81 1010.99 1011.20 1011.40 1011.58 1011.69 1011.75 1011.74 1011.70 1011.64 1011.60 1011.62 1011.73 1011.94 1012.28
1015.90 1015.81 1015.78 1015.78 1015.81 1015.82 1015.79 1015.71 1015.57 1015.36 1015.11 1014.83 1014.53 1014.22 1013.93 1013.64 1013.35 1013.06 1012.77 1012.46 1012.14 1011.83 1011.53 1011.27 1011.06 1010.94 1010.90 1010.95 1011.07 1011.24 1011.44 1011.63 1011.77 1011.86 1011.87 1011.81 1011.70 1011.57 1011.47 1011.42 1011.45 1011.60 1011.87
1015.84 1015.72 1015.66 1015.65 1015.67 1015.70 1015.70 1015.66 1015.57 1015.42 1015.21 1014.97 1014.71 1014.43 1014.15 1013.87 1013.59 1013.30 1013.01 1012.70 1012.39 1012.08 1011.79 1011.54 1011.35 1011.23 1011.20 1011.25 1011.36 1011.52 1011.70 1011.86 1011.97 1012.02 1011.99 1011.89 1011.74 1011.57 1011.41 1011.31 1011.29 1011.36 1011.56
1015.70 1015.54 1015.44 1015.40 1015.40 1015.41 1015.43 1015.42 1015.37 1015.28 1015.13 1014.95 1014.74 1014.50 1014.25 1013.99 1013.72 1013.45 1013.16 1012.87 1012.57 1012.28 1012.02 1011.79 1011.62 1011.52 1011.49 1011.53 1011.63 1011.76 1011.91 1012.03 1012.11 1012.13 1012.07 1011.95 1011.79 1011.60 1011.43 1011.29 1011.23 1011.26 1011.38
1015.48 1015.29 1015.14 1015.05 1015.01 1015.01 1015.03 1015.05 1015.04 1015.00 1014.92 1014.80 1014.64 1014.46 1014.25 1014.02 1013.78 1013.52 1013.26 1012.98 1012.71 1012.44 1012.20 1012.00 1011.85 1011.75 1011.72 1011.75 1011.82 1011.92 1012.02 1012.11 1012.16 1012.15 1012.09 1011.97 1011.82 1011.65 1011.49 1011.36 1011.28 1011.27 1011.34
1015.21 1014.99 1014.80 1014.67 1014.60 1014.58 1014.59 1014.62 1014.65 1014.67 1014.65 1014.60 1014.50 1014.38 1014.21 1014.02 1013.80 1013.57 1013.32 1013.07 1012.81 1012.57 1012.35 1012.17 1012.02 1011.93 1011.88 1011.88 1011.91 1011.96 1012.02 1012.07 1012.09 1012.07 1012.02 1011.93 1011.81 1011.69 1011.57 1011.47 1011.41 1011.40 1011.43
1014.92 1014.69 1014.49 1014.34 1014.25 1014.21 1014.22 1014.27 1014.33 1014.39 1014.42 1014.43 1014.39 1014.31 1014.19 1014.03 1013.84 1013.63 1013.40 1013.16 1012.93 1012.70 1012.49 1012.31 1012.17 1012.06 1011.98 1011.94 1011.92 1011.92 1011.93 1011.93 1011.93 1011.91 1011.87 1011.81 1011.75 1011.69 1011.63 1011.60 1011.58 1011.58 1011.61
1014.65 1014.45 1014.26 1014.11 1014.01 1013.97 1013.99 1014.05 1014.13 1014.22 1014.30 1014.35 1014.36 1014.32 1014.23 1014.10 1013.93 1013.74 1013.52 1013.29 1013.07 1012.85 1012.65 1012.47 1012.31 1012.17 1012.06 1011.97 1011.90 1011.84 1011.79 1011.75 1011.72 1011.69 1011.66 1011.64 1011.63 1011.64 1011.65 1011.67 1011.71 1011.75 1011.78
1014.43 1014.27 1014.11 1013.99 1013.91 1013.88 1013.91 1013.98 1014.08 1014.19 1014.29 1014.37 1014.41 1014.40 1014.34 1014.23 1014.08 1013.89 1013.69 1013.47 1013.25 1013.04 1012.84 1012.65 1012.47 1012.31 1012.16 1012.02 1011.90 1011.78 1011.67 1011.58 1011.51 1011.46 1011.44 1011.43 1011.46 1011.51 1011.58 1011.66 1011.74 1011.82 1011.89
1014.23 1014.13 1014.03 1013.95 1013.90 1013.89 1013.93 1014.01 1014.12 1014.24 1014.36 1014.45 1014.51 1014.51 1014.47 1014.38 1014.24 1014.07 1013.88 1013.68 1013.47 1013.27 1013.07 1012.88 1012.69 1012.50 1012.32 1012.14 1011.96 1011.79 1011.63 1011.48 1011.36 1011.28 1011.23 1011.22 1011.24 1011.31 1011.40 1011.51 1011.62 1011.74 1011.84
1014.01 1013.97 1013.93 1013.90 1013.89 1013.91 1013.97 1014.06 1014.17 1014.30 1014.41 1014.51 1014.57 1014.59 1014.56 1014.49 1014.38 1014.23 1014.06 1013.88 1013.70 1013.51 1013.32 1013.14 1012.95 1012.75 1012.55 1012.34 1012.12 1011.90 1011.68 1011.48 1011.31 1011.17 1011.07 1011.01 1011.01 1011.04 1011.12 1011.22 1011.35 1011.48 1011.60
1013.71 1013.74 1013.75 1013.76 1013.79 1013.84 1013.92 1014.01 1014.13 1014.25 1014.37 1014.47 1014.54 1014.58 1014.57 1014.52 1014.44 1014.33 1014.20 1014.05 1013.90 1013.74 1013.58 1013.41 1013.23 1013.04 1012.83 1012.60 1012.36 1012.10 1011.84 1011.59 1011.36 1011.15 1010.98 1010.86 1010.78 1010.75 1010.77 1010.84 1010.93 1011.05 1011.19
1013.31 1013.37 1013.42 1013.47 1013.53 1013.60 1013.70 1013.80 1013.92 1014.05 1014.17 1014.28 1014.37 1014.43 1014.45 1014.44 1014.40 1014.34 1014.25 1014.15 1014.04 1013.92 1013.79 1013.65 1013.49 1013.32 1013.11 1012.89 1012.64 1012.37 1012.08 1011.79 1011.50 1011.23 1010.98 1010.77 1010.61 1010.49 1010.42 1010.41 1010.45 1010.53 1010.64
1012.78 1012.85 1012.92 1012.99 1013.08 1013.17 1013.27 1013.40 1013.53 1013.66 1013.80 1013.93 1014.05 1014.14 1014.21 1014.25 1014.26 1014.24 1014.21 1014.16 1014.09 1014.01 1013.92 1013.81 1013.68 1013.53 1013.35 1013.14 1012.90 1012.63 1012.34 1012.02 1011.70 1011.37 1011.06 1010.77 1010.51 1010.30 1010.13 1010.03 1009.98 1009.99 1010.07
1012.17 1012.22 1012.29 1012.37 1012.47 1012.57 1012.70 1012.83 1012.99 1013.15 1013.31 1013.47 1013.63 1013.76 1013.87 1013.96 1014.02 1014.06 1014.07 1014.06 1014.03 1013.99 1013.93 1013.85 1013.75 1013.63 1013.48 1013.30 1013.08 1012.83 1012.55 1012.24 1011.90 1011.55 1011.19 1010.84 1010.51 1010.21 1009.95 1009.75 1009.62 1009.55 1009.56
1011.53 1011.55 1011.61 1011.68 1011.78 1011.90 1012.04 1012.20 1012.38 1012.57 1012.77 1012.97 1013.16 1013.34 1013.49 1013.62 1013.73 1013.80 1013.84 1013.86 1013.85 1013.83 1013.79 1013.73 1013.65 1013.56 1013.44 1013.29 1013.12 1012.90 1012.65 1012.37 1012.05 1011.70 1011.33 1010.96 1010.59 1010.23 1009.91 1009.63 1009.41 1009.26 1009.18
Thickness
5713 5712 5710 5709 5710 5709 5709 5708 5708 5707 5707 5707 5707 5707 5707 5707 5707 5708 5707 5705 5703 5702 5702 5703 5704 5704 5705 5705 5705 5705 5705 5705 5704 5704 5704 5704 5704 5704 5704 5704 5703 5703 5703
5708 5707 5706 5705 5705 5704 5705 5704 5704 5703 5704 5703 5703 5703 5703 5704 5703 5702 5703 5703 5701 5699 5698 5699 5699 5700 5701 5701 5702 5702 5702 5702 5701 5701 5701 5701 5701 5702 5702 5701 5701 5701 5701
5702 5701 5701 5700 5700 5699 5699 5699 5700 5700 5700 5700 5700 5700 5700 5700 5700 5699 5700 5700 5700 5698 5696 5695 5695 5696 5697 5697 5698 5698 5699 5699 5698 5698 5698 5698 5698 5698 5699 5699 5699 5698 5698
5696 5696 5697 5697 5695 5695 5695 5695 5696 5696 5696 5696 5696 5697 5697 5696 5697 5696 5697 5697 5697 5697 5695 5693 5692 5692 5692 5693 5694 5695 5695 5695 5695 5694 5694 5695 5695 5695 5695 5696 5696 5695 5695
5691 5691 5692 5692 5691 5691 5691 5691 5692 5691 5691 5691 5692 5692 5693 5693 5693 5693 5693 5693 5692 5692 5692 5691 5689 5689 5688 5689 5689 5690 5691 5691 5691 5691 5691 5692 5692 5692 5692 5692 5692 5692 5692
5687 5687 5688 5687 5688 5688 5687 5687 5686 5686 5686 5685 5687 5688 5688 5689 5689 5689 5689 5690 5688 5688 5689 5688 5687 5687 5685 5685 5685 5685 5686 5687 5687 5687 5687 5688 5688 5688 5688 5688 5689 5689 5688
5683 5682 5683 5683 5683 5684 5683 5683 5682 5682 5681 5681 5680 5681 5683 5686 5685 5684 5684 5684 5684 5684 5683 5683 5683 5682 5682 5681 5680 5680 5681 5682 5682 5683 5684 5684 5684 5684 5684 5684 5684 5685 5685
5680 5681 5679 5680 5680 5679 5679 5679 5677 5677 5678 5677 5675 5674 5675 5677 5677 5681 5679 5678 5678 5678 5678 5678 5677 5676 5677 5678 5678 5676 5675 5676 5677 5678 5679 5680 5680 5680 5680 5680 5680 5680 5680
5678 5676 5676 5676 5676 5677 5677 5675 5674 5672 5672 5673 5672 5669 5668 5668 5669 5673 5672 5672 5671 5671 5672 5672 5671 5670 5670 5672 5672 5671 5670 5670 5671 5672 5674 5675 5675 5676 5676 5676 5676 5675 5676
5676 5674 5673 5673 5673 5674 5673 5672 5672 5670 5668 5667 5667 5665 5664 5664 5660 5661 5664 5666 5665 5665 5665 5666 5666 5665 5664 5665 5665 5665 5664 5663 5664 5666 5667 5669 5669 5670 5670 5670 5671 5671 5671
5674 5672 5671 5670 5669 5670 5669 5667 5667 5666 5665 5663 5662 5661 5660 5658 5657 5654 5655 5657 5658 5660 5660 5659 5659 5659 5659 5659 5659 5659 5658 5657 5658 5659 5660 5662 5663 5664 5664 5664 5665 5666 5666
5672 5670 5669 5667 5666 5666 5664 5663 5662 5661 5659 5658 5657 5657 5656 5654 5652 5651 5649 5649 5650 5653 5653 5652 5653 5654 5654 5654 5653 5652 5651 5651 5651 5652 5653 5654 5655 5656 5657 5658 5659 5660 5661
5669 5667 5666 5664 5663 5662 5661 5659 5658 5656 5655 5653 5652 5653 5653 5651 5650 5647 5645 5644 5644 5647 5646 5647 5648 5648 5648 5647 5647 5645 5644 5644 5644 5645 5645 5646 5647 5649 5650 5651 5653 5654 5655
5667 5664 5662 5660 5660 5659 5658 5656 5656 5654 5652 5650 5649 5648 5647 5647 5646 5643 5641 5639 5638 5640 5641 5640 5642 5641 5641 5640 5639 5637 5638 5638 5638 5638 5638 5639 5639 5641 5642 5644 5646 5647 5648
5664 5661 5659 5657 5656 5655 5654 5652 5651 5649 5648 5647 5646 5644 5643 5643 5642 5640 5638 5636 5632 5631 5634 5635 5635 5635 5634 5633 5632 5632 5632 5632 5631 5631 5631 5632 5632 5633 5635 5637 5639 5640 5641
5659 5658 5657 5655 5654 5653 5651 5648 5647 5646 5643 5642 5640 5637 5636 5637 5636 5635 5634 5632 5630 5627 5627 5631 5630 5630 5627 5628 5626 5626 5627 5626 5625 5625 5625 5625 5626 5627 5628 5630 5632 5633 5634
5656 5655 5653 5651 5650 5648 5647 5645 5644 5641 5639 5637 5636 5634 5632 5630 5630 5629 5629 5627 5626 5624 5621 5623 5624 5623 5620 5619 5620 5620 5622 5622 5623 5621 5620 5619 5620 5621 5622 5623 5625 5627 5628
5653 5652 5650 5648 5647 5645 5643 5641 5638 5637 5635 5634 5632 5630 5628 5627 5625 5624 5623 5622 5620 5618 5616 5614 5615 5616 5614 5613 5613 5613 5615 5617 5618 5617 5615 5615 5615 5615 5616 5617 5619 5620 5621
5651 5649 5648 5645 5643 5642 5639 5637 5635 5633 5632 5631 5629 5627 5624 5623 5620 5620 5618 5617 5617 5615 5612 5610 5610 5609 5609 5608 5607 5608 5609 5608 5611 5612 5610 5610 5610 5610 5611 5611 5612 5613 5614
5648 5647 5646 5643 5641 5639 5637 5635 5633 5631 5629 5628 5626 5624 5622 5620 5617 5616 5614 5612 5611 5609 5607 5606 5605 5604 5603 5602 5601 5601 5602 5603 5605 5607 5606 5606 5606 5605 5606 5606 5607 5607 5607
5647 5646 5643 5641 5639 5637 5635 5633 5631 5629 5627 5625 5623 5621 5619 5616 5612 5610 5610 5608 5606 5604 5603 5601 5600 5599 5598 5595 5595 5596 5596 5597 5598 5599 5599 5601 5602 5603 5602 5601 5600 5600 5601
5645 5643 5641 5639 5637 5635 5629 5626 5625 5625 5624 5622 5620 5618 5616 5613 5609 5605 5602 5599 5597 5596 5595 5594 5594 5593 5591 5591 5590 5590 5590 5590 5590 5593 5591 5593 5595 5597 5597 5597 5596 5594 5594
5642 5640 5639 5636 5634 5630 5625 5622 5619 5620 5621 5619 5617 5615 5614 5612 5606 5604 5600 5596 5594 5590 5586 5586 5587 5586 5586 5585 5582 5583 5582 5581 5581 5583 5582 5584 5587 5588 5590 5590 5588 5587 5587
5639 5637 5636 5634 5632 5627 5622 5619 5617 5617 5618 5616 5614 5612 5609 5606 5603 5598 5597 5595 5593 5590 5586 5583 5582 5581 5580 5578 5576 5575 5574 5574 5574 5574 5574 5575 5578 5578 5580 5581 5579 5579 5579
5636 5635 5634 5632 5630 5626 5620 5616 5613 5616 5615 5614 5612 5609 5606 5602 5595 5591 5591 5589 5587 5585 5582 5578 5575 5573 5571 5569 5567 5568 5569 5568 5569 5569 5568 5566 5568 5569 5570 5572 5572 5571 5572
5635 5634 5632 5631 5628 5625 5619 5614 5610 5615 5613 5612 5610 5606 5600 5595 5589 5585 5586 5584 5581 5579 5577 5575 5571 5569 5568 5566 5562 5561 5562 5562 5562 5561 5561 5558 5558 5559 5561 5564 5565 5565 5565